Retour au catalogue

WORLDVIEW 1

ActifScienceSSO
NORAD 32060·PAYLOAD·🇺🇸 United States

Lancé Sep 18, 2007 depuis Vandenberg Space Force Base

Loading…

Prochains Passages (prochaines 24 heures)

TLE

FraisSource: Space-Track

Époque: Sep 14, 2026, 13:29 UTC

1 32060U 07041A   26257.56215347  .00004885  00000-0  20099-3 0  9996
2 32060  97.3874  16.0288 0001997  92.5681 267.5786 15.24605403 56498

Suivez WORLDVIEW 1 en temps réel avec AllMySat

Download on the App Store